{"data":{"norad_id":68258,"epoch":"2026-09-19T23:04:09.476256Z","epoch_age_seconds":97533,"freshness":"FRESH","line1":"1 68258U 26054AC  26262.96122079  .00017825  00000+0  53792-3 0  9991","line2":"2 68258  53.1570 112.5349 0001504  81.1773 278.9400 15.34370457 28766","mean_motion":15.34370457,"eccentricity":0.0001504,"inclination_deg":53.157,"raan_deg":112.5349,"arg_perigee_deg":81.1773,"mean_anomaly_deg":278.94,"bstar":0.00053792,"rev_number":2876,"period_min":93.849565040211,"perigee_km":461.76217405923,"apogee_km":463.81992521656,"semimajor_km":6840.9280496379,"source":"CELESTRAK","updated_at":"2026-09-20T09:00:43.844799Z"}}